[TLELIST] Archives

 

[TLELIST] Current TLEs

May 30th 2023 PDT

HST 1 20580U 90037B 23150.06744576 .00003755 00000-0 19615-3 0 9999 2 20580 28.4707 28.5575 0002360 177.0674 298.0620 15.13136081618977 ISS (ZARYA) 1 25544U 98067A 23150.22508225 .00013293 00000-0 23809-3 0 9990 2 25544 51.6426 57.5769 0005342 36.4941 100.3182 15.50280847399002 CXO 1 25867U 99040B 23152.09328780 .00000642 00000-0 00000+0 0 9991 2 25867 37.7296 198.8693 9049731 260.7279 0.0177 0.37815840 24270 ...Continue Reading

[TLELIST] Current TLEs

May 29th 2023 PDT

HST 1 20580U 90037B 23148.87634757 .00004241 00000-0 22291-3 0 9999 2 20580 28.4706 36.4809 0002445 164.4247 289.5647 15.13128778618534 ISS (ZARYA) 1 25544U 98067A 23149.25829992 .00013900 00000-0 24880-3 0 9993 2 25544 51.6433 62.3698 0005487 31.7591 105.9049 15.50253786398851 CXO 1 25867U 99040B 23149.44800758 .00000665 00000-0 00000+0 0 9991 2 25867 37.7551 199.2137 9052473 260.4525 359.8573 0.37816477 24261 ...Continue Reading

[TLELIST] Current TLEs

May 29th 2023 PDT

HST 1 20580U 90037B 23148.87634757 .00004241 00000-0 22291-3 0 9999 2 20580 28.4706 36.4809 0002445 164.4247 289.5647 15.13128778618534 ISS (ZARYA) 1 25544U 98067A 23149.25829992 .00013900 00000-0 24880-3 0 9993 2 25544 51.6433 62.3698 0005487 31.7591 105.9049 15.50253786398851 CXO 1 25867U 99040B 23149.44800758 .00000665 00000-0 00000+0 0 9991 2 25867 37.7551 199.2137 9052473 260.4525 359.8573 0.37816477 24261 ...Continue Reading

[TLELIST] Current TLEs

May 28th 2023 PDT

HST 1 20580U 90037B 23147.95401407 .00003456 00000-0 17977-3 0 9993 2 20580 28.4703 42.6161 0002536 155.2638 304.5552 15.13120578618391 ISS (ZARYA) 1 25544U 98067A 23148.29221582 .00011756 00000-0 21191-3 0 9996 2 25544 51.6418 67.1579 0005403 29.3487 113.1741 15.50227316398704 CXO 1 25867U 99040B 23149.44800758 .00000665 00000-0 00000+0 0 9991 2 25867 37.7551 199.2137 9052473 260.4525 359.8573 0.37816477 24261 ...Continue Reading

[TLELIST] Current TLEs

May 28th 2023 PDT

HST 1 20580U 90037B 23147.95401407 .00003456 00000-0 17977-3 0 9993 2 20580 28.4703 42.6161 0002536 155.2638 304.5552 15.13120578618391 ISS (ZARYA) 1 25544U 98067A 23148.29221582 .00011756 00000-0 21191-3 0 9996 2 25544 51.6418 67.1579 0005403 29.3487 113.1741 15.50227316398704 CXO 1 25867U 99040B 23149.44800758 .00000665 00000-0 00000+0 0 9991 2 25867 37.7551 199.2137 9052473 260.4525 359.8573 0.37816477 24261 ...Continue Reading

[TLELIST] Current TLEs

May 27th 2023 PDT

HST 1 20580U 90037B 23147.16757419 .00002723 00000-0 13952-3 0 9998 2 20580 28.4704 47.8475 0002542 146.8877 340.4966 15.13113670618534 ISS (ZARYA) 1 25544U 98067A 23147.32582755 .00012405 00000-0 22331-3 0 9990 2 25544 51.6414 71.9460 0005420 25.4252 120.3439 15.50206706398555 CXO 1 25867U 99040B 23149.44800758 .00000665 00000-0 00000+0 0 9991 2 25867 37.7551 199.2137 9052473 260.4525 359.8573 0.37816477 24261 ...Continue Reading

[TLELIST] Current TLEs

May 26th 2023 PDT

HST 1 20580U 90037B 23145.97392142 .00003796 00000-0 19859-3 0 9996 2 20580 28.4704 55.7880 0002558 134.6459 317.7408 15.13108037618090 ISS (ZARYA) 1 25544U 98067A 23146.29199340 .00013557 00000-0 24348-3 0 9998 2 25544 51.6416 77.0709 0005558 20.0880 112.3558 15.50182998398391 CXO 1 25867U 99040B 23146.80286303 .00000643 00000-0 00000+0 0 9998 2 25867 37.7869 199.6114 9054036 260.1203 359.7624 0.37814613 24254 ...Continue Reading

[TLELIST] Current TLEs

May 25th 2023 PDT

HST 1 20580U 90037B 23144.20332032 .00004339 00000-0 22851-3 0 9993 2 20580 28.4702 67.5658 0002618 116.8819 31.5681 15.13095903618092 ISS (ZARYA) 1 25544U 98067A 23145.32602431 .00014206 00000-0 25493-3 0 9995 2 25544 51.6413 81.8570 0005396 18.1967 120.0030 15.50160974398246 CXO 1 25867U 99040B 23146.80286303 .00000643 00000-0 00000+0 0 9998 2 25867 37.7869 199.6114 9054036 260.1203 359.7624 0.37814613 24254 ...Continue Reading

[TLELIST] Current TLEs

May 24th 2023 PDT

HST 1 20580U 90037B 23144.20332032 .00004339 00000-0 22851-3 0 9993 2 20580 28.4702 67.5658 0002618 116.8819 31.5681 15.13095903618092 ISS (ZARYA) 1 25544U 98067A 23144.35992656 .00012175 00000-0 21991-3 0 9990 2 25544 51.6423 86.6478 0005404 15.0627 128.2414 15.50130822398094 CXO 1 25867U 99040B 23146.80286303 .00000643 00000-0 00000+0 0 9998 2 25867 37.7869 199.6114 9054036 260.1203 359.7624 0.37814613 24254 ...Continue Reading

[TLELIST] Current TLEs

May 23rd 2023 PDT

HST 1 20580U 90037B 23143.14695840 .00004607 00000-0 24330-3 0 9996 2 20580 28.4700 74.5924 0002640 106.3190 36.5492 15.13087758617931 ISS (ZARYA) 1 25544U 98067A 23143.39286124 .00015439 00000-0 27683-3 0 9999 2 25544 51.6412 91.4355 0005402 11.5200 131.5842 15.50108381397946 CXO 1 25867U 99040B 23144.15816058 .00000584 00000-0 00000-0 0 9995 2 25867 37.8143 199.9692 9054067 259.8205 359.7503 0.37809188 13092 ...Continue Reading
  • This mailing list is a public mailing list - anyone may join or leave, at any time.
  • This mailing list is announce-only.

International Space Station (ISS) / Hubble Space Telescope (HST) / Chandra X-Ray Observatory Orbital Data via EMAIL

Privacy Policy:

Private list